User: anonymous   Login
Location: Fort Wayne
(41.1310°N, 85.1290°W)
Time: 05:50:14
(UTC-04:00)
Language:

Cosmos 2219 Rocket - Orbit

View from above orbital plane
View from above orbital plane
View from above satellite
View from above satellite

Ground track
Ground track

The orbit data is extracted from the following two-line orbital elements,

1 22220U 92076B   15121.85874454  .00000172  00000-0  11079-3 0  9998
2 22220 071.0009 255.4096 0012368 007.6746 159.5016 14.16365707160709
Epoch (UTC): 01 May 2015 20:36:35
Eccentricity: 0.0012368
inclination: 71.0009°
perigee height: 829 km
apogee height: 846 km
right ascension of ascending node: 255.4096°
argument of perigee: 7.6746°
revolutions per day: 14.16365707
mean anomaly at epoch: 159.5016°
orbit number at epoch: 16070

The dashed part of the orbit path shows where the satellite is in the earth's shadow,  

DLR